Year,Month,Day,Hour,Minute,Value (Times are PST for temperature in C)
2009,10,07,00,00,7.00
2009,10,07,00,01,7.00
2009,10,07,00,02,7.00
2009,10,07,00,03,7.00
2009,10,07,00,04,7.00
2009,10,07,00,05,7.00
2009,10,07,00,06,7.00
2009,10,07,00,07,6.90
2009,10,07,00,08,6.90
2009,10,07,00,09,6.90
2009,10,07,00,10,6.90
2009,10,07,00,11,6.80
2009,10,07,00,12,6.80
2009,10,07,00,13,6.80
2009,10,07,00,14,6.80
2009,10,07,00,15,6.80
2009,10,07,00,16,6.80
2009,10,07,00,17,6.80
2009,10,07,00,18,6.80
2009,10,07,00,19,6.80
2009,10,07,00,20,6.80
2009,10,07,00,21,6.70
2009,10,07,00,22,6.70
2009,10,07,00,23,6.70
2009,10,07,00,24,6.70
2009,10,07,00,25,6.70
2009,10,07,00,26,6.70
2009,10,07,00,27,6.70
2009,10,07,00,28,6.70
2009,10,07,00,29,6.70
2009,10,07,00,30,6.70
2009,10,07,00,31,6.70
2009,10,07,00,32,6.70
2009,10,07,00,33,6.70
2009,10,07,00,34,6.70
2009,10,07,00,35,6.70
2009,10,07,00,36,6.70
2009,10,07,00,37,6.70
2009,10,07,00,38,6.70
2009,10,07,00,39,6.70
2009,10,07,00,40,6.70
2009,10,07,00,41,6.60
2009,10,07,00,42,6.60
2009,10,07,00,43,6.60
2009,10,07,00,44,6.60
2009,10,07,00,45,6.60
2009,10,07,00,46,6.60
2009,10,07,00,47,6.60
2009,10,07,00,48,6.60
2009,10,07,00,49,6.60
2009,10,07,00,50,6.60
2009,10,07,00,51,6.60
2009,10,07,00,52,6.60
2009,10,07,00,53,6.60
2009,10,07,00,54,6.60
2009,10,07,00,55,6.60
2009,10,07,00,56,6.60
2009,10,07,00,57,6.50
2009,10,07,00,58,6.60
2009,10,07,00,59,6.60
2009,10,07,01,00,6.60
2009,10,07,01,01,6.50
2009,10,07,01,02,6.40
2009,10,07,01,03,6.40
2009,10,07,01,04,6.40
2009,10,07,01,05,6.40
2009,10,07,01,06,6.40
2009,10,07,01,07,6.40
2009,10,07,01,08,6.40
2009,10,07,01,09,6.40
2009,10,07,01,10,6.40
2009,10,07,01,11,6.40
2009,10,07,01,12,6.40
2009,10,07,01,13,6.40
2009,10,07,01,14,6.40
2009,10,07,01,15,6.40
2009,10,07,01,16,6.40
2009,10,07,01,17,6.40
2009,10,07,01,18,6.40
2009,10,07,01,19,6.40
2009,10,07,01,20,6.40
2009,10,07,01,21,6.50
2009,10,07,01,22,6.60
2009,10,07,01,23,6.60
2009,10,07,01,24,6.60
2009,10,07,01,25,6.60
2009,10,07,01,26,6.70
2009,10,07,01,27,6.80
2009,10,07,01,28,6.80
2009,10,07,01,29,6.90
2009,10,07,01,30,7.00
2009,10,07,01,31,7.00
2009,10,07,01,32,7.10
2009,10,07,01,33,7.20
2009,10,07,01,34,7.20
2009,10,07,01,35,7.30
2009,10,07,01,36,7.30
2009,10,07,01,37,7.30
2009,10,07,01,38,7.30
2009,10,07,01,39,7.30
2009,10,07,01,40,7.40
2009,10,07,01,41,7.40
2009,10,07,01,42,7.40
2009,10,07,01,43,7.50
2009,10,07,01,44,7.50
2009,10,07,01,45,7.50
2009,10,07,01,46,7.60
2009,10,07,01,47,7.60
2009,10,07,01,48,7.70
2009,10,07,01,49,7.70
2009,10,07,01,50,7.80
2009,10,07,01,51,7.80
2009,10,07,01,52,7.80
2009,10,07,01,53,7.80
2009,10,07,01,54,7.90
2009,10,07,01,55,7.90
2009,10,07,01,56,7.90
2009,10,07,01,57,7.90
2009,10,07,01,58,8.00
2009,10,07,01,59,8.00
2009,10,07,02,00,8.00
2009,10,07,02,01,8.00
2009,10,07,02,02,8.00
2009,10,07,02,03,8.10
2009,10,07,02,04,8.10
2009,10,07,02,05,8.10
2009,10,07,02,06,8.20
2009,10,07,02,07,8.20
2009,10,07,02,08,8.20
2009,10,07,02,09,8.20
2009,10,07,02,10,8.20
2009,10,07,02,11,8.30
2009,10,07,02,12,8.30
2009,10,07,02,13,8.40
2009,10,07,02,14,8.40
2009,10,07,02,15,8.50
2009,10,07,02,16,8.50
2009,10,07,02,17,8.50
2009,10,07,02,18,8.50
2009,10,07,02,19,8.60
2009,10,07,02,20,8.60
2009,10,07,02,21,8.70
2009,10,07,02,22,8.70
2009,10,07,02,23,8.70
2009,10,07,02,24,8.70
2009,10,07,02,25,8.70
2009,10,07,02,26,8.70
2009,10,07,02,27,8.70
2009,10,07,02,28,8.80
2009,10,07,02,29,8.80
2009,10,07,02,30,8.80
2009,10,07,02,31,8.90
2009,10,07,02,32,8.90
2009,10,07,02,33,8.90
2009,10,07,02,34,9.00
2009,10,07,02,35,9.10
2009,10,07,02,36,9.20
2009,10,07,02,37,9.20
2009,10,07,02,38,9.30
2009,10,07,02,39,9.30
2009,10,07,02,40,9.40
2009,10,07,02,41,9.40
2009,10,07,02,42,9.50
2009,10,07,02,43,9.60
2009,10,07,02,44,9.60
2009,10,07,02,45,9.70
2009,10,07,02,46,9.70
2009,10,07,02,47,9.80
2009,10,07,02,48,9.90
2009,10,07,02,49,9.90
2009,10,07,02,50,9.90
2009,10,07,02,51,10.00
2009,10,07,02,52,10.10
2009,10,07,02,53,10.10
2009,10,07,02,54,10.10
2009,10,07,02,55,10.10
2009,10,07,02,56,10.20
2009,10,07,02,57,10.20
2009,10,07,02,58,10.20
2009,10,07,02,59,10.30
2009,10,07,03,00,10.30
2009,10,07,03,01,10.30
2009,10,07,03,02,10.40
2009,10,07,03,03,10.40
2009,10,07,03,04,10.40
2009,10,07,03,05,10.40
2009,10,07,03,06,10.40
2009,10,07,03,07,10.40
2009,10,07,03,08,10.40
2009,10,07,03,09,10.40
2009,10,07,03,10,10.50
2009,10,07,03,11,10.60
2009,10,07,03,12,10.60
2009,10,07,03,13,10.60
2009,10,07,03,14,10.60
2009,10,07,03,15,10.60
2009,10,07,03,16,10.60
2009,10,07,03,17,10.60
2009,10,07,03,18,10.60
2009,10,07,03,19,10.60
2009,10,07,03,20,10.60
2009,10,07,03,21,10.60
2009,10,07,03,22,10.60
2009,10,07,03,23,10.60
2009,10,07,03,24,10.60
2009,10,07,03,25,10.60
2009,10,07,03,26,10.60
2009,10,07,03,27,10.60
2009,10,07,03,28,10.60
2009,10,07,03,29,10.60
2009,10,07,03,30,10.60
2009,10,07,03,31,10.60
2009,10,07,03,32,10.70
2009,10,07,03,33,10.60
2009,10,07,03,34,10.60
2009,10,07,03,35,10.60
2009,10,07,03,36,10.60
2009,10,07,03,37,10.60
2009,10,07,03,38,10.60
2009,10,07,03,39,10.60
2009,10,07,03,40,10.70
2009,10,07,03,41,10.70
2009,10,07,03,42,10.70
2009,10,07,03,43,10.70
2009,10,07,03,44,10.70
2009,10,07,03,45,10.70
2009,10,07,03,46,10.80
2009,10,07,03,47,10.80
2009,10,07,03,48,10.80
2009,10,07,03,49,10.80
2009,10,07,03,50,10.80
2009,10,07,03,51,10.80
2009,10,07,03,52,10.80
2009,10,07,03,53,10.80
2009,10,07,03,54,10.80
2009,10,07,03,55,10.80
2009,10,07,03,56,10.80
2009,10,07,03,57,10.80
2009,10,07,03,58,10.80
2009,10,07,03,59,10.80
2009,10,07,04,00,10.80
2009,10,07,04,01,10.80
2009,10,07,04,02,10.80
2009,10,07,04,03,10.80
2009,10,07,04,04,10.80
2009,10,07,04,05,10.80
2009,10,07,04,06,10.80
2009,10,07,04,07,10.80
2009,10,07,04,08,10.80
2009,10,07,04,09,10.80
2009,10,07,04,10,10.80
2009,10,07,04,11,10.80
2009,10,07,04,12,10.80
2009,10,07,04,13,10.80
2009,10,07,04,14,10.90
2009,10,07,04,15,10.90
2009,10,07,04,16,10.90
2009,10,07,04,17,10.90
2009,10,07,04,18,10.90
2009,10,07,04,19,10.90
2009,10,07,04,20,10.90
2009,10,07,04,21,10.90
2009,10,07,04,22,10.90
2009,10,07,04,23,10.90
2009,10,07,04,24,10.90
2009,10,07,04,25,10.80
2009,10,07,04,26,10.80
2009,10,07,04,27,10.80
2009,10,07,04,28,10.80
2009,10,07,04,29,10.80
2009,10,07,04,30,10.80
2009,10,07,04,31,10.80
2009,10,07,04,32,10.80
2009,10,07,04,33,10.80
2009,10,07,04,34,10.80
2009,10,07,04,35,10.80
2009,10,07,04,36,10.80
2009,10,07,04,37,10.80
2009,10,07,04,38,10.80
2009,10,07,04,39,10.80
2009,10,07,04,40,10.80
2009,10,07,04,41,10.70
2009,10,07,04,42,10.70
2009,10,07,04,43,10.70
2009,10,07,04,44,10.60
2009,10,07,04,45,10.60
2009,10,07,04,46,10.60
2009,10,07,04,47,10.50
2009,10,07,04,48,10.40
2009,10,07,04,49,10.40
2009,10,07,04,50,10.30
2009,10,07,04,51,10.20
2009,10,07,04,52,10.20
2009,10,07,04,53,10.10
2009,10,07,04,54,10.10
2009,10,07,04,55,10.10
2009,10,07,04,56,10.00
2009,10,07,04,57,9.90
2009,10,07,04,58,9.90
2009,10,07,04,59,9.90
2009,10,07,05,00,9.90
2009,10,07,05,01,9.80
2009,10,07,05,02,9.80
2009,10,07,05,03,9.80
2009,10,07,05,04,9.70
2009,10,07,05,05,9.70
2009,10,07,05,06,9.70
2009,10,07,05,07,9.70
2009,10,07,05,08,9.60
2009,10,07,05,09,9.60
2009,10,07,05,10,9.60
2009,10,07,05,11,9.50
2009,10,07,05,12,9.50
2009,10,07,05,13,9.40
2009,10,07,05,14,9.30
2009,10,07,05,15,9.30
2009,10,07,05,16,9.20
2009,10,07,05,17,9.20
2009,10,07,05,18,9.20
2009,10,07,05,19,9.20
2009,10,07,05,20,9.20
2009,10,07,05,21,9.20
2009,10,07,05,22,9.20
2009,10,07,05,23,9.20
2009,10,07,05,24,9.20
2009,10,07,05,25,9.20
2009,10,07,05,26,9.20
2009,10,07,05,27,9.20
2009,10,07,05,28,9.20
2009,10,07,05,29,9.20
2009,10,07,05,30,9.20
2009,10,07,05,31,9.10
2009,10,07,05,32,9.10
2009,10,07,05,33,9.10
2009,10,07,05,34,9.00
2009,10,07,05,35,9.00
2009,10,07,05,36,9.00
2009,10,07,05,37,8.90
2009,10,07,05,38,8.90
2009,10,07,05,39,8.90
2009,10,07,05,40,8.90
2009,10,07,05,41,8.90
2009,10,07,05,42,8.90
2009,10,07,05,43,8.90
2009,10,07,05,44,8.90
2009,10,07,05,45,8.90
2009,10,07,05,46,8.90
2009,10,07,05,47,8.90
2009,10,07,05,48,8.90
2009,10,07,05,49,8.90
2009,10,07,05,50,8.90
2009,10,07,05,51,8.90
2009,10,07,05,52,8.90
2009,10,07,05,53,8.90
2009,10,07,05,54,8.90
2009,10,07,05,55,8.80
2009,10,07,05,56,8.80
2009,10,07,05,57,8.80
2009,10,07,05,58,8.70
2009,10,07,05,59,8.70
2009,10,07,06,00,8.70
2009,10,07,06,01,8.70
2009,10,07,06,02,8.70
2009,10,07,06,03,8.70
2009,10,07,06,04,8.70
2009,10,07,06,05,8.70
2009,10,07,06,06,8.70
2009,10,07,06,07,8.70
2009,10,07,06,08,8.70
2009,10,07,06,09,8.70
2009,10,07,06,10,8.70
2009,10,07,06,11,8.70
2009,10,07,06,12,8.70
2009,10,07,06,13,8.70
2009,10,07,06,14,8.70
2009,10,07,06,15,8.70
2009,10,07,06,16,8.70
2009,10,07,06,17,8.70
2009,10,07,06,18,8.70
2009,10,07,06,19,8.70
2009,10,07,06,20,8.70
2009,10,07,06,21,8.70
2009,10,07,06,22,8.70
2009,10,07,06,23,8.70
2009,10,07,06,24,8.70
2009,10,07,06,25,8.70
2009,10,07,06,26,8.70
2009,10,07,06,27,8.70
2009,10,07,06,28,8.70
2009,10,07,06,29,8.70
2009,10,07,06,30,8.70
2009,10,07,06,31,8.70
2009,10,07,06,32,8.60
2009,10,07,06,33,8.60
2009,10,07,06,34,8.60
2009,10,07,06,35,8.50
2009,10,07,06,36,8.50
2009,10,07,06,37,8.50
2009,10,07,06,38,8.40
2009,10,07,06,39,8.40
2009,10,07,06,40,8.40
2009,10,07,06,41,8.30
2009,10,07,06,42,8.30
2009,10,07,06,43,8.30
2009,10,07,06,44,8.30
2009,10,07,06,45,8.30
2009,10,07,06,46,8.30
2009,10,07,06,47,8.30
2009,10,07,06,48,8.20
2009,10,07,06,49,8.20
2009,10,07,06,50,8.20
2009,10,07,06,51,8.20
2009,10,07,06,52,8.20
2009,10,07,06,53,8.20
2009,10,07,06,54,8.20
2009,10,07,06,55,8.20
2009,10,07,06,56,8.20
2009,10,07,06,57,8.20
2009,10,07,06,58,8.10
2009,10,07,06,59,8.10
2009,10,07,07,00,8.10
2009,10,07,07,01,8.00
2009,10,07,07,02,8.00
2009,10,07,07,03,7.90
2009,10,07,07,04,7.90
2009,10,07,07,05,7.90
2009,10,07,07,06,7.80
2009,10,07,07,07,7.80
2009,10,07,07,08,7.80
2009,10,07,07,09,7.80
2009,10,07,07,10,7.80
2009,10,07,07,11,7.80
2009,10,07,07,12,7.70
2009,10,07,07,13,7.60
2009,10,07,07,14,7.60
2009,10,07,07,15,7.60
2009,10,07,07,16,7.50
2009,10,07,07,17,7.50
2009,10,07,07,18,7.50
2009,10,07,07,19,7.40
2009,10,07,07,20,7.40
2009,10,07,07,21,7.40
2009,10,07,07,22,7.30
2009,10,07,07,23,7.30
2009,10,07,07,24,7.30
2009,10,07,07,25,7.30
2009,10,07,07,26,7.30
2009,10,07,07,27,7.30
2009,10,07,07,28,7.30
2009,10,07,07,29,7.30
2009,10,07,07,30,7.30
2009,10,07,07,31,7.20
2009,10,07,07,32,7.20
2009,10,07,07,33,7.20
2009,10,07,07,34,7.20
2009,10,07,07,35,7.20
2009,10,07,07,36,7.20
2009,10,07,07,37,7.20
2009,10,07,07,38,7.20
2009,10,07,07,39,7.20
2009,10,07,07,40,7.20
2009,10,07,07,41,7.20
2009,10,07,07,42,7.20
2009,10,07,07,43,7.10
2009,10,07,07,44,7.10
2009,10,07,07,45,7.10
2009,10,07,07,46,7.10
2009,10,07,07,47,7.00
2009,10,07,07,48,7.00
2009,10,07,07,49,7.00
2009,10,07,07,50,7.00
2009,10,07,07,51,7.00
2009,10,07,07,52,7.00
2009,10,07,07,53,6.90
2009,10,07,07,54,6.90
2009,10,07,07,55,6.90
2009,10,07,07,56,6.90
2009,10,07,07,57,6.90
2009,10,07,07,58,6.80
2009,10,07,07,59,6.80
2009,10,07,08,00,6.80
2009,10,07,08,01,6.80
2009,10,07,08,02,6.80
2009,10,07,08,03,6.80
2009,10,07,08,04,6.80
2009,10,07,08,05,6.80
2009,10,07,08,06,6.80
2009,10,07,08,07,6.80
2009,10,07,08,08,6.80
2009,10,07,08,09,6.80
2009,10,07,08,10,6.80
2009,10,07,08,11,6.90
2009,10,07,08,12,6.90
2009,10,07,08,13,6.90
2009,10,07,08,14,6.90
2009,10,07,08,15,7.00
2009,10,07,08,16,7.00
2009,10,07,08,17,7.00
2009,10,07,08,18,7.00
2009,10,07,08,19,7.00
2009,10,07,08,20,7.00
2009,10,07,08,21,7.00
2009,10,07,08,22,7.10
2009,10,07,08,23,7.10
2009,10,07,08,24,7.20
2009,10,07,08,25,7.20
2009,10,07,08,26,7.20
2009,10,07,08,27,7.20
2009,10,07,08,28,7.20
2009,10,07,08,29,7.20
2009,10,07,08,30,7.20
2009,10,07,08,31,7.30
2009,10,07,08,32,7.30
2009,10,07,08,33,7.30
2009,10,07,08,34,7.30
2009,10,07,08,35,7.30
2009,10,07,08,36,7.30
2009,10,07,08,37,7.30
2009,10,07,08,38,7.40
2009,10,07,08,39,7.50
2009,10,07,08,40,7.50
2009,10,07,08,41,7.60
2009,10,07,08,42,7.60
2009,10,07,08,43,7.70
2009,10,07,08,44,7.80
2009,10,07,08,45,7.80
2009,10,07,08,46,7.90
2009,10,07,08,47,8.00
2009,10,07,08,48,8.00
2009,10,07,08,49,8.10
2009,10,07,08,50,8.20
2009,10,07,08,51,8.20
2009,10,07,08,52,8.30
2009,10,07,08,53,8.30
2009,10,07,08,54,8.30
2009,10,07,08,55,8.40
2009,10,07,08,56,8.50
2009,10,07,08,57,8.60
2009,10,07,08,58,8.70
2009,10,07,08,59,8.80
2009,10,07,09,00,8.90
2009,10,07,09,01,9.00
2009,10,07,09,02,9.10
2009,10,07,09,03,9.20
2009,10,07,09,04,9.20
2009,10,07,09,05,9.30
2009,10,07,09,06,9.40
2009,10,07,09,07,9.50
2009,10,07,09,08,9.50
2009,10,07,09,09,9.60
2009,10,07,09,10,9.70
2009,10,07,09,11,9.80
2009,10,07,09,12,9.80
2009,10,07,09,13,9.90
2009,10,07,09,14,10.10
2009,10,07,09,15,10.10
2009,10,07,09,16,10.20
2009,10,07,09,17,10.30
2009,10,07,09,18,10.40
2009,10,07,09,19,10.60
2009,10,07,09,20,10.60
2009,10,07,09,21,10.70
2009,10,07,09,22,10.80
2009,10,07,09,23,10.90
2009,10,07,09,24,11.10
2009,10,07,09,25,11.20
2009,10,07,09,26,11.40
2009,10,07,09,27,11.50
2009,10,07,09,28,11.70
2009,10,07,09,29,11.80
2009,10,07,09,30,12.00
2009,10,07,09,31,12.10
2009,10,07,09,32,12.20
2009,10,07,09,33,12.30
2009,10,07,09,34,12.40
2009,10,07,09,35,12.50
2009,10,07,09,36,12.50
2009,10,07,09,37,12.50
2009,10,07,09,38,12.50
2009,10,07,09,39,12.50
2009,10,07,09,40,12.50
2009,10,07,09,41,12.50
2009,10,07,09,42,12.50
2009,10,07,09,43,12.60
2009,10,07,09,44,12.60
2009,10,07,09,45,12.60
2009,10,07,09,46,12.70
2009,10,07,09,47,12.80
2009,10,07,09,48,12.90
2009,10,07,09,49,13.00
2009,10,07,09,50,13.00
2009,10,07,09,51,13.10
2009,10,07,09,52,13.20
2009,10,07,09,53,13.20
2009,10,07,09,54,13.20
2009,10,07,09,55,13.20
2009,10,07,09,56,13.10
2009,10,07,09,57,13.10
2009,10,07,09,58,13.00
2009,10,07,09,59,12.90
2009,10,07,10,00,12.90
2009,10,07,10,01,12.80
2009,10,07,10,02,12.80
2009,10,07,10,03,12.80
2009,10,07,10,04,12.80
2009,10,07,10,05,12.80
2009,10,07,10,06,12.90
2009,10,07,10,07,12.90
2009,10,07,10,08,12.90
2009,10,07,10,09,13.00
2009,10,07,10,10,13.10
2009,10,07,10,11,13.20
2009,10,07,10,12,13.30
2009,10,07,10,13,13.30
2009,10,07,10,14,13.30
2009,10,07,10,15,13.30
2009,10,07,10,16,13.30
2009,10,07,10,17,13.30
2009,10,07,10,18,13.30
2009,10,07,10,19,13.30
2009,10,07,10,20,13.20
2009,10,07,10,21,13.10
2009,10,07,10,22,13.10
2009,10,07,10,23,13.10
2009,10,07,10,24,13.10
2009,10,07,10,25,13.10
2009,10,07,10,26,13.20
2009,10,07,10,27,13.30
2009,10,07,10,28,13.50
2009,10,07,10,29,13.60
2009,10,07,10,30,13.70
2009,10,07,10,31,13.80
2009,10,07,10,32,13.80
2009,10,07,10,33,13.80
2009,10,07,10,34,13.90
2009,10,07,10,35,13.90
2009,10,07,10,36,13.90
2009,10,07,10,37,13.90
2009,10,07,10,38,13.80
2009,10,07,10,39,13.80
2009,10,07,10,40,13.80
2009,10,07,10,41,13.80
2009,10,07,10,42,13.90
2009,10,07,10,43,13.80
2009,10,07,10,44,13.70
2009,10,07,10,45,13.70
2009,10,07,10,46,13.70
2009,10,07,10,47,13.70
2009,10,07,10,48,13.60
2009,10,07,10,49,13.60
2009,10,07,10,50,13.60
2009,10,07,10,51,13.60
2009,10,07,10,52,13.70
2009,10,07,10,53,13.90
2009,10,07,10,54,13.90
2009,10,07,10,55,14.00
2009,10,07,10,56,14.20
2009,10,07,10,57,14.20
2009,10,07,10,58,14.40
2009,10,07,10,59,14.40
2009,10,07,11,00,14.40
2009,10,07,11,01,14.30
2009,10,07,11,02,14.30
2009,10,07,11,03,14.30
2009,10,07,11,04,14.30
2009,10,07,11,05,14.40
2009,10,07,11,06,14.40
2009,10,07,11,07,14.30
2009,10,07,11,08,14.20
2009,10,07,11,09,14.20
2009,10,07,11,10,14.30
2009,10,07,11,11,14.30
2009,10,07,11,12,14.20
2009,10,07,11,13,14.20
2009,10,07,11,14,14.20
2009,10,07,11,15,14.30
2009,10,07,11,16,14.50
2009,10,07,11,17,14.50
2009,10,07,11,18,14.60
2009,10,07,11,19,14.70
2009,10,07,11,20,14.70
2009,10,07,11,21,14.80
2009,10,07,11,22,14.80
2009,10,07,11,23,14.80
2009,10,07,11,24,14.80
2009,10,07,11,25,14.90
2009,10,07,11,26,14.90
2009,10,07,11,27,14.80
2009,10,07,11,28,14.80
2009,10,07,11,29,14.70
2009,10,07,11,30,14.50
2009,10,07,11,31,14.40
2009,10,07,11,32,14.40
2009,10,07,11,33,14.40
2009,10,07,11,34,14.40
2009,10,07,11,35,14.30
2009,10,07,11,36,14.20
2009,10,07,11,37,14.20
2009,10,07,11,38,14.20
2009,10,07,11,39,14.20
2009,10,07,11,40,14.20
2009,10,07,11,41,14.10
2009,10,07,11,42,14.00
2009,10,07,11,43,14.00
2009,10,07,11,44,14.00
2009,10,07,11,45,13.80
2009,10,07,11,46,13.70
2009,10,07,11,47,13.60
2009,10,07,11,48,13.60
2009,10,07,11,49,13.60
2009,10,07,11,50,13.50
2009,10,07,11,51,13.60
2009,10,07,11,52,13.60
2009,10,07,11,53,13.50
2009,10,07,11,54,13.60
2009,10,07,11,55,13.60
2009,10,07,11,56,13.70
2009,10,07,11,57,13.80
2009,10,07,11,58,13.90
2009,10,07,11,59,14.10
2009,10,07,12,00,14.20
2009,10,07,12,01,14.30
2009,10,07,12,02,14.40
2009,10,07,12,03,14.40
2009,10,07,12,04,14.30
2009,10,07,12,05,14.20
2009,10,07,12,06,14.20
2009,10,07,12,07,14.20
2009,10,07,12,08,14.20
2009,10,07,12,09,14.40
2009,10,07,12,10,14.40
2009,10,07,12,11,14.30
2009,10,07,12,12,14.20
2009,10,07,12,13,14.20
2009,10,07,12,14,14.20
2009,10,07,12,15,14.20
2009,10,07,12,16,14.10
2009,10,07,12,17,14.00
2009,10,07,12,18,14.10
2009,10,07,12,19,14.10
2009,10,07,12,20,14.10
2009,10,07,12,21,14.00
2009,10,07,12,22,14.00
2009,10,07,12,23,14.00
2009,10,07,12,24,14.10
2009,10,07,12,25,14.00
2009,10,07,12,26,14.00
2009,10,07,12,27,14.00
2009,10,07,12,28,14.00
2009,10,07,12,29,14.10
2009,10,07,12,30,14.20
2009,10,07,12,31,14.20
2009,10,07,12,32,14.30
2009,10,07,12,33,14.20
2009,10,07,12,34,14.20
2009,10,07,12,35,14.20
2009,10,07,12,36,14.20
2009,10,07,12,37,14.10
2009,10,07,12,38,14.00
2009,10,07,12,39,13.90
2009,10,07,12,40,13.80
2009,10,07,12,41,13.90
2009,10,07,12,42,13.90
2009,10,07,12,43,14.10
2009,10,07,12,44,14.20
2009,10,07,12,45,14.40
2009,10,07,12,46,14.60
2009,10,07,12,47,14.60
2009,10,07,12,48,14.70
2009,10,07,12,49,14.80
2009,10,07,12,50,14.80
2009,10,07,12,51,14.70
2009,10,07,12,52,14.60
2009,10,07,12,53,14.60
2009,10,07,12,54,14.60
2009,10,07,12,55,14.50
2009,10,07,12,56,14.50
2009,10,07,12,57,14.60
2009,10,07,12,58,14.60
2009,10,07,12,59,14.50
2009,10,07,13,00,14.30
2009,10,07,13,01,14.30
2009,10,07,13,02,14.30
2009,10,07,13,03,14.30
2009,10,07,13,04,14.40
2009,10,07,13,05,14.50
2009,10,07,13,06,14.60
2009,10,07,13,07,14.70
2009,10,07,13,08,14.80
2009,10,07,13,09,14.80
2009,10,07,13,10,14.80
2009,10,07,13,11,14.80
2009,10,07,13,12,14.80
2009,10,07,13,13,14.80
2009,10,07,13,14,14.70
2009,10,07,13,15,14.70
2009,10,07,13,16,14.70
2009,10,07,13,17,14.80
2009,10,07,13,18,14.70
2009,10,07,13,19,14.60
2009,10,07,13,20,14.50
2009,10,07,13,21,14.50
2009,10,07,13,22,14.50
2009,10,07,13,23,14.60
2009,10,07,13,24,14.80
2009,10,07,13,25,14.80
2009,10,07,13,26,14.80
2009,10,07,13,27,14.70
2009,10,07,13,28,14.70
2009,10,07,13,29,14.70
2009,10,07,13,30,14.60
2009,10,07,13,31,14.50
2009,10,07,13,32,14.30
2009,10,07,13,33,14.40
2009,10,07,13,34,14.40
2009,10,07,13,35,14.40
2009,10,07,13,36,14.40
2009,10,07,13,37,14.40
2009,10,07,13,38,14.40
2009,10,07,13,39,14.50
2009,10,07,13,40,14.40
2009,10,07,13,41,14.30
2009,10,07,13,42,14.20
2009,10,07,13,43,14.20
2009,10,07,13,44,14.20
2009,10,07,13,45,14.30
2009,10,07,13,46,14.40
2009,10,07,13,47,14.50
2009,10,07,13,48,14.70
2009,10,07,13,49,14.80
2009,10,07,13,50,14.70
2009,10,07,13,51,14.70
2009,10,07,13,52,14.60
2009,10,07,13,53,14.50
2009,10,07,13,54,14.50
2009,10,07,13,55,14.40
2009,10,07,13,56,14.40
2009,10,07,13,57,14.30
2009,10,07,13,58,14.20
2009,10,07,13,59,14.20
2009,10,07,14,00,14.20
2009,10,07,14,01,14.20
2009,10,07,14,02,14.20
2009,10,07,14,03,14.20
2009,10,07,14,04,14.20
2009,10,07,14,05,14.20
2009,10,07,14,06,14.20
2009,10,07,14,07,14.30
2009,10,07,14,08,14.50
2009,10,07,14,09,14.60
2009,10,07,14,10,14.70
2009,10,07,14,11,14.90
2009,10,07,14,12,15.10
2009,10,07,14,13,15.30
2009,10,07,14,14,15.40
2009,10,07,14,15,15.40
2009,10,07,14,16,15.30
2009,10,07,14,17,15.30
2009,10,07,14,18,15.30
2009,10,07,14,19,15.30
2009,10,07,14,20,15.30
2009,10,07,14,21,15.30
2009,10,07,14,22,15.30
2009,10,07,14,23,15.30
2009,10,07,14,24,15.50
2009,10,07,14,25,15.50
2009,10,07,14,26,15.60
2009,10,07,14,27,15.70
2009,10,07,14,28,15.70
2009,10,07,14,29,15.80
2009,10,07,14,30,15.90
2009,10,07,14,31,15.90
2009,10,07,14,32,16.00
2009,10,07,14,33,16.10
2009,10,07,14,34,16.10
2009,10,07,14,35,16.00
2009,10,07,14,36,15.90
2009,10,07,14,37,15.80
2009,10,07,14,38,15.60
2009,10,07,14,39,15.50
2009,10,07,14,40,15.50
2009,10,07,14,41,15.50
2009,10,07,14,42,15.50
2009,10,07,14,43,15.60
2009,10,07,14,44,15.60
2009,10,07,14,45,15.60
2009,10,07,14,46,15.60
2009,10,07,14,47,15.70
2009,10,07,14,48,15.70
2009,10,07,14,49,15.80
2009,10,07,14,50,15.90
2009,10,07,14,51,16.00
2009,10,07,14,52,16.10
2009,10,07,14,53,16.10
2009,10,07,14,54,16.00
2009,10,07,14,55,15.80
2009,10,07,14,56,15.80
2009,10,07,14,57,15.80
2009,10,07,14,58,15.80
2009,10,07,14,59,15.80
2009,10,07,15,00,15.80
2009,10,07,15,01,15.80
2009,10,07,15,02,15.80
2009,10,07,15,03,15.80
2009,10,07,15,04,15.80
2009,10,07,15,05,15.80
2009,10,07,15,06,15.80
2009,10,07,15,07,15.90
2009,10,07,15,08,15.90
2009,10,07,15,09,15.90
2009,10,07,15,10,15.90
2009,10,07,15,11,15.90
2009,10,07,15,12,15.80
2009,10,07,15,13,15.80
2009,10,07,15,14,15.80
2009,10,07,15,15,15.80
2009,10,07,15,16,15.80
2009,10,07,15,17,15.80
2009,10,07,15,18,15.80
2009,10,07,15,19,15.80
2009,10,07,15,20,15.90
2009,10,07,15,21,15.90
2009,10,07,15,22,16.00
2009,10,07,15,23,16.10
2009,10,07,15,24,16.20
2009,10,07,15,25,16.20
2009,10,07,15,26,16.20
2009,10,07,15,27,16.20
2009,10,07,15,28,16.20
2009,10,07,15,29,16.20
2009,10,07,15,30,16.20
2009,10,07,15,31,16.30
2009,10,07,15,32,16.30
2009,10,07,15,33,16.40
2009,10,07,15,34,16.50
2009,10,07,15,35,16.70
2009,10,07,15,36,16.70
2009,10,07,15,37,16.80
2009,10,07,15,38,16.90
2009,10,07,15,39,17.00
2009,10,07,15,40,16.90
2009,10,07,15,41,16.90
2009,10,07,15,42,16.90
2009,10,07,15,43,16.90
2009,10,07,15,44,16.80
2009,10,07,15,45,16.80
2009,10,07,15,46,16.70
2009,10,07,15,47,16.60
2009,10,07,15,48,16.50
2009,10,07,15,49,16.40
2009,10,07,15,50,16.40
2009,10,07,15,51,16.40
2009,10,07,15,52,16.30
2009,10,07,15,53,16.20
2009,10,07,15,54,16.10
2009,10,07,15,55,16.10
2009,10,07,15,56,16.10
2009,10,07,15,57,16.10
2009,10,07,15,58,16.10
2009,10,07,15,59,15.90
2009,10,07,16,00,15.90
2009,10,07,16,01,15.90
2009,10,07,16,02,15.80
2009,10,07,16,03,15.80
2009,10,07,16,04,15.80
2009,10,07,16,05,15.80
2009,10,07,16,06,15.80
2009,10,07,16,07,15.80
2009,10,07,16,08,15.80
2009,10,07,16,09,15.80
2009,10,07,16,10,15.80
2009,10,07,16,11,15.80
2009,10,07,16,12,15.80
2009,10,07,16,13,15.80
2009,10,07,16,14,15.70
2009,10,07,16,15,15.70
2009,10,07,16,16,15.70
2009,10,07,16,17,15.70
2009,10,07,16,18,15.70
2009,10,07,16,19,15.70
2009,10,07,16,20,15.70
2009,10,07,16,21,15.70
2009,10,07,16,22,15.70
2009,10,07,16,23,15.70
2009,10,07,16,24,15.60
2009,10,07,16,25,15.60
2009,10,07,16,26,15.60
2009,10,07,16,27,15.60
2009,10,07,16,28,15.50
2009,10,07,16,29,15.50
2009,10,07,16,30,15.40
2009,10,07,16,31,15.40
2009,10,07,16,32,15.40
2009,10,07,16,33,15.30
2009,10,07,16,34,15.30
2009,10,07,16,35,15.30
2009,10,07,16,36,15.30
2009,10,07,16,37,15.30
2009,10,07,16,38,15.30
2009,10,07,16,39,15.30
2009,10,07,16,40,15.30
2009,10,07,16,41,15.20
2009,10,07,16,42,15.20
2009,10,07,16,43,15.20
2009,10,07,16,44,15.10
2009,10,07,16,45,15.10
2009,10,07,16,46,15.10
2009,10,07,16,47,15.10
2009,10,07,16,48,15.10
2009,10,07,16,49,15.10
2009,10,07,16,50,15.10
2009,10,07,16,51,15.10
2009,10,07,16,52,15.00
2009,10,07,16,53,15.00
2009,10,07,16,54,15.00
2009,10,07,16,55,15.00
2009,10,07,16,56,15.00
2009,10,07,16,57,15.00
2009,10,07,16,58,15.00
2009,10,07,16,59,15.00
2009,10,07,17,00,15.00
2009,10,07,17,01,14.90
2009,10,07,17,02,14.90
2009,10,07,17,03,14.80
2009,10,07,17,04,14.80
2009,10,07,17,05,14.80
2009,10,07,17,06,14.80
2009,10,07,17,07,14.80
2009,10,07,17,08,14.80
2009,10,07,17,09,14.80
2009,10,07,17,10,14.80
2009,10,07,17,11,14.80
2009,10,07,17,12,14.80
2009,10,07,17,13,14.80
2009,10,07,17,14,14.80
2009,10,07,17,15,14.80
2009,10,07,17,16,14.80
2009,10,07,17,17,14.80
2009,10,07,17,18,14.80
2009,10,07,17,19,14.80
2009,10,07,17,20,14.80
2009,10,07,17,21,14.80
2009,10,07,17,22,14.80
2009,10,07,17,23,14.80
2009,10,07,17,24,14.80
2009,10,07,17,25,14.70
2009,10,07,17,26,14.70
2009,10,07,17,27,14.60
2009,10,07,17,28,14.60
2009,10,07,17,29,14.60
2009,10,07,17,30,14.60
2009,10,07,17,31,14.50
2009,10,07,17,32,14.50
2009,10,07,17,33,14.50
2009,10,07,17,34,14.50
2009,10,07,17,35,14.50
2009,10,07,17,36,14.50
2009,10,07,17,37,14.50
2009,10,07,17,38,14.50